Change the Weather History Date:

Saturday, April 19, 2014

  Actual Average Record
Temperature  
Mean Temperature 62 °F 59 °F  
Max Temperature 75 °F 70 °F 86 °F (1958)
Min Temperature 49 °F 48 °F 27 °F (1983)
Degree Days  
Heating Degree Days 3 7  
Month to date heating degree days 159 183  
Since 1 July heating degree days 4461 3962  
Cooling Degree Days 0 1  
Month to date cooling degree days 21 19  
Year to date cooling degree days 21 25  
Growing Degree Days 12 (Base 50)    
Moisture  
Dew Point 38 °F    
Average Humidity 45    
Maximum Humidity 68    
Minimum Humidity 22    
Precipitation  
Precipitation 0.00 in 0.13 in 1.47 in (1903)
Month to date precipitation 4.62 2.40  
Year to date precipitation 13.08 12.99  
Snow  
Snow 0.00 in 0.00 in T in (2006)
Month to date snowfall 0.1 0.1  
Since 1 July snowfall 26.0 12.5  
Snow Depth 0.00 in    
Sea Level Pressure  
Sea Level Pressure 30.22 in    
Wind  
Wind Speed 8 mph (NE)    
Max Wind Speed 18 mph    
Max Gust Speed 24 mph    
Visibility 10 miles    
Events      
T = Trace of Precipitation, MM = Missing Value Source: NWS Daily Summary

Daily Weather History Graph

Daily Weather History Graph

Search for Another Location

Airport or City:

Trip Planner

Search our weather history database for the weather conditions in past years. The results will help you decide how hot, cold, wet, or windy it might be!

Date:

Astronomy

Apr. 19, 2014 Rise Set
Actual Time 7:01 AM EDT 8:22 PM EDT
Civil Twilight 6:34 AM EDT 8:50 PM EDT
Nautical Twilight 6:01 AM EDT 9:23 PM EDT
Astronomical Twilight 5:26 AM EDT 9:58 PM EDT
Moon 12:04 AM EDT (4/19) 10:21 AM EDT (4/19)
Length of Visible Light 14h 16m
Length of Day
13h 21m
Waning Gibbous, 79% of the Moon is Illuminated
Apr 19
Waning Gibbous
Apr 22
Last Quarter
Apr 29
New
May 6
First Quarter
May 14
Full

Hourly Weather History & Observations

Time (EDT) Temp. Dew Point Humidity Pressure Visibility Wind Dir Wind Speed Gust Speed Precip Events Conditions
12:56 AM 57.0 °F 42.1 °F 57% 30.21 in 10.0 mi Calm Calm - N/A   Overcast
1:56 AM 54.0 °F 42.1 °F 64% 30.21 in 10.0 mi North 4.6 mph - N/A   Overcast
2:56 AM 54.0 °F 41.0 °F 62% 30.21 in 10.0 mi North 5.8 mph - N/A   Overcast
3:56 AM 53.1 °F 41.0 °F 64% 30.21 in 10.0 mi North 8.1 mph - N/A   Mostly Cloudy
4:56 AM 53.1 °F 39.9 °F 61% 30.22 in 10.0 mi NE 3.5 mph - N/A   Mostly Cloudy
5:56 AM 51.1 °F 39.9 °F 66% 30.22 in 10.0 mi NNE 5.8 mph - N/A   Mostly Cloudy
6:56 AM 50.0 °F 39.9 °F 68% 30.25 in 10.0 mi NNW 5.8 mph - N/A   Scattered Clouds
7:56 AM 51.1 °F 41.0 °F 68% 30.26 in 10.0 mi North 6.9 mph - N/A   Scattered Clouds
8:56 AM 55.0 °F 39.9 °F 57% 30.28 in 10.0 mi North 5.8 mph - N/A   Partly Cloudy
9:56 AM 60.1 °F 41.0 °F 49% 30.28 in 10.0 mi NNE 5.8 mph - N/A   Partly Cloudy
10:56 AM 66.0 °F 42.1 °F 42% 30.27 in 10.0 mi ENE 8.1 mph - N/A   Partly Cloudy
11:56 AM 70.0 °F 42.1 °F 36% 30.27 in 10.0 mi NE 11.5 mph - N/A   Partly Cloudy
12:56 PM 71.6 °F 41.0 °F 33% 30.26 in 10.0 mi ENE 12.7 mph - N/A   Partly Cloudy
1:56 PM 72.0 °F 30.9 °F 22% 30.23 in 10.0 mi NNE 11.5 mph 18.4 mph N/A   Partly Cloudy
2:56 PM 73.9 °F 34.0 °F 23% 30.22 in 10.0 mi NNE 11.5 mph 18.4 mph N/A   Partly Cloudy
3:56 PM 73.9 °F 36.0 °F 25% 30.19 in 10.0 mi NE 13.8 mph 19.6 mph N/A   Partly Cloudy
4:56 PM 73.9 °F 36.0 °F 25% 30.19 in 10.0 mi East 8.1 mph - N/A   Partly Cloudy
5:56 PM 73.9 °F 37.0 °F 26% 30.19 in 10.0 mi East 10.4 mph - N/A   Partly Cloudy
6:56 PM 73.0 °F 37.0 °F 27% 30.19 in 10.0 mi ENE 11.5 mph - N/A   Partly Cloudy
7:56 PM 70.0 °F 35.1 °F 28% 30.19 in 10.0 mi ENE 8.1 mph - N/A   Partly Cloudy
8:56 PM 66.0 °F 35.1 °F 32% 30.20 in 10.0 mi NE 5.8 mph - N/A   Partly Cloudy
9:56 PM 63.0 °F 36.0 °F 37% 30.20 in 10.0 mi NE 6.9 mph - N/A   Partly Cloudy
10:56 PM 63.0 °F 36.0 °F 37% 30.21 in 10.0 mi ENE 6.9 mph - N/A   Scattered Clouds
11:56 PM 60.1 °F 35.1 °F 39% 30.21 in 10.0 mi NE 6.9 mph - N/A   Partly Cloudy